Time,TemperatureF,DewpointF,PressureIn,WindDirection,WindDirectionDegrees,WindSpeedMPH,WindSpeedGustMPH,Humidity,HourlyPrecipIn,Conditions,Clouds,dailyrainin,SoftwareType,DateUTC
2013-04-26 00:03:00,52.9,46.6,30.05,SSW,209,4.0,10.0,79,0.00,,,0.00,Wunderground v.1.15,2013-04-26 07:03:00,
2013-04-26 00:08:00,52.8,46.5,30.06,South,182,7.0,10.0,79,0.00,,,0.00,Wunderground v.1.15,2013-04-26 07:08:00,
2013-04-26 00:14:00,52.8,46.5,30.06,SSW,213,4.0,9.0,79,0.00,,,0.00,Wunderground v.1.15,2013-04-26 07:14:00,
2013-04-26 00:20:00,53.0,46.7,30.06,SSW,213,6.0,7.0,79,0.00,,,0.00,Wunderground v.1.15,2013-04-26 07:20:00,
2013-04-26 00:25:00,53.1,46.8,30.06,SSW,202,5.0,11.0,79,0.00,,,0.00,Wunderground v.1.15,2013-04-26 07:25:00,
2013-04-26 00:31:00,53.2,46.9,30.06,SSW,211,5.0,8.0,79,0.00,,,0.00,Wunderground v.1.15,2013-04-26 07:31:00,
2013-04-26 00:37:00,53.1,46.8,30.06,SSW,207,5.0,8.0,79,0.00,,,0.00,Wunderground v.1.15,2013-04-26 07:37:00,
2013-04-26 00:43:00,53.0,46.7,30.06,South,169,4.0,10.0,79,0.00,,,0.00,Wunderground v.1.15,2013-04-26 07:43:00,
2013-04-26 00:48:00,52.9,46.6,30.06,South,184,6.0,10.0,79,0.00,,,0.00,Wunderground v.1.15,2013-04-26 07:48:00,
2013-04-26 00:54:00,52.8,46.8,30.06,SW,217,6.0,8.0,80,0.00,,,0.00,Wunderground v.1.15,2013-04-26 07:54:00,
2013-04-26 01:00:00,52.8,46.8,30.06,SSW,212,7.0,7.0,80,0.00,,,0.00,Wunderground v.1.15,2013-04-26 08:00:00,
2013-04-26 01:06:00,52.8,46.5,30.06,SSW,192,6.0,8.0,79,0.00,,,0.00,Wunderground v.1.15,2013-04-26 08:06:00,
2013-04-26 01:11:00,52.8,46.8,30.06,SSW,207,5.0,6.0,80,0.00,,,0.00,Wunderground v.1.15,2013-04-26 08:11:00,
2013-04-26 01:17:00,52.8,46.8,30.06,SSW,196,5.0,6.0,80,0.00,,,0.00,Wunderground v.1.15,2013-04-26 08:17:00,
2013-04-26 01:23:00,52.8,46.8,30.07,South,183,5.0,5.0,80,0.00,,,0.00,Wunderground v.1.15,2013-04-26 08:23:00,
2013-04-26 01:29:00,52.6,46.6,30.07,SSW,205,6.0,7.0,80,0.00,,,0.00,Wunderground v.1.15,2013-04-26 08:29:00,
2013-04-26 01:35:00,52.5,46.5,30.07,SSW,192,4.0,6.0,80,0.00,,,0.00,Wunderground v.1.15,2013-04-26 08:35:00,
2013-04-26 01:41:00,52.3,46.6,30.07,SSW,203,5.0,6.0,81,0.00,,,0.00,Wunderground v.1.15,2013-04-26 08:41:00,
2013-04-26 01:47:00,52.2,46.5,30.07,SSW,200,6.0,10.0,81,0.00,,,0.00,Wunderground v.1.15,2013-04-26 08:47:00,
2013-04-26 01:52:00,52.2,46.5,30.07,South,182,6.0,10.0,81,0.00,,,0.00,Wunderground v.1.15,2013-04-26 08:52:00,
2013-04-26 01:58:00,52.1,46.4,30.07,SSW,202,2.0,10.0,81,0.00,,,0.00,Wunderground v.1.15,2013-04-26 08:58:00,
2013-04-26 02:03:00,52.1,46.4,30.07,SSW,202,3.0,5.0,81,0.00,,,0.00,Wunderground v.1.15,2013-04-26 09:03:00,
2013-04-26 02:08:00,52.1,46.4,30.08,SSW,201,2.0,7.0,81,0.00,,,0.00,Wunderground v.1.15,2013-04-26 09:08:00,
2013-04-26 02:13:00,52.1,46.4,30.08,SSW,200,2.0,5.0,81,0.00,,,0.00,Wunderground v.1.15,2013-04-26 09:13:00,
2013-04-26 02:18:00,52.1,46.4,30.08,SSW,200,0.0,5.0,81,0.00,,,0.00,Wunderground v.1.15,2013-04-26 09:18:00,
2013-04-26 02:23:00,52.1,46.4,30.08,SSW,200,0.0,2.0,81,0.00,,,0.00,Wunderground v.1.15,2013-04-26 09:23:00,
2013-04-26 02:28:00,52.1,46.4,30.08,SSW,200,0.0,3.0,81,0.00,,,0.00,Wunderground v.1.15,2013-04-26 09:28:00,
2013-04-26 02:33:00,52.0,46.3,30.08,SSW,200,2.0,3.0,81,0.00,,,0.00,Wunderground v.1.15,2013-04-26 09:33:00,
2013-04-26 02:38:00,52.0,46.3,30.08,SSW,199,2.0,5.0,81,0.00,,,0.00,Wunderground v.1.15,2013-04-26 09:38:00,
2013-04-26 02:43:00,51.9,46.6,30.08,SSW,199,4.0,5.0,82,0.00,,,0.00,Wunderground v.1.15,2013-04-26 09:43:00,
2013-04-26 02:48:00,51.8,46.5,30.08,SSW,198,4.0,6.0,82,0.00,,,0.00,Wunderground v.1.15,2013-04-26 09:48:00,
2013-04-26 02:53:00,51.7,46.4,30.08,SSW,195,1.0,4.0,82,0.00,,,0.00,Wunderground v.1.15,2013-04-26 09:53:00,
2013-04-26 02:58:00,51.6,46.3,30.08,South,186,2.0,6.0,82,0.00,,,0.00,Wunderground v.1.15,2013-04-26 09:58:00,
2013-04-26 03:03:00,51.5,46.2,30.08,South,186,3.0,4.0,82,0.00,,,0.00,Wunderground v.1.15,2013-04-26 10:03:00,
2013-04-26 03:08:00,51.4,46.4,30.09,South,186,3.0,4.0,83,0.00,,,0.00,Wunderground v.1.15,2013-04-26 10:08:00,
2013-04-26 03:13:00,51.4,46.4,30.09,South,187,2.0,6.0,83,0.00,,,0.00,Wunderground v.1.15,2013-04-26 10:13:00,
2013-04-26 03:18:00,51.3,46.3,30.09,South,180,2.0,7.0,83,0.00,,,0.00,Wunderground v.1.15,2013-04-26 10:18:00,
2013-04-26 03:23:00,51.2,46.5,30.09,South,180,4.0,7.0,84,0.00,,,0.00,Wunderground v.1.15,2013-04-26 10:23:00,
2013-04-26 03:28:00,51.0,46.3,30.09,South,183,4.0,7.0,84,0.00,,,0.00,Wunderground v.1.15,2013-04-26 10:28:00,
2013-04-26 03:33:00,50.9,46.2,30.10,South,184,2.0,5.0,84,0.00,,,0.00,Wunderground v.1.15,2013-04-26 10:33:00,
2013-04-26 03:38:00,50.9,46.2,30.10,South,186,2.0,5.0,84,0.00,,,0.00,Wunderground v.1.15,2013-04-26 10:38:00,
2013-04-26 03:43:00,50.8,46.5,30.10,SSW,196,1.0,6.0,85,0.00,,,0.00,Wunderground v.1.15,2013-04-26 10:43:00,
2013-04-26 03:48:00,50.8,46.5,30.10,SSW,194,5.0,7.0,85,0.00,,,0.00,Wunderground v.1.15,2013-04-26 10:48:00,
2013-04-26 03:53:00,50.7,46.4,30.10,SSW,194,3.0,5.0,85,0.00,,,0.00,Wunderground v.1.15,2013-04-26 10:53:00,
2013-04-26 03:58:00,50.7,46.4,30.10,SSW,194,3.0,5.0,85,0.00,,,0.00,Wunderground v.1.15,2013-04-26 10:58:00,
2013-04-26 04:03:00,50.7,46.4,30.11,SSW,194,1.0,3.0,85,0.00,,,0.00,Wunderground v.1.15,2013-04-26 11:03:00,
2013-04-26 04:08:00,50.6,46.3,30.11,SSW,194,0.0,3.0,85,0.00,,,0.00,Wunderground v.1.15,2013-04-26 11:08:00,
2013-04-26 04:13:00,50.6,46.3,30.11,SSW,194,1.0,3.0,85,0.00,,,0.00,Wunderground v.1.15,2013-04-26 11:13:00,
2013-04-26 04:18:00,50.6,46.3,30.11,SSW,194,0.0,3.0,85,0.00,,,0.00,Wunderground v.1.15,2013-04-26 11:18:00,
2013-04-26 04:23:00,50.6,46.3,30.11,SSW,194,0.0,1.0,85,0.00,,,0.00,Wunderground v.1.15,2013-04-26 11:23:00,
2013-04-26 04:28:00,50.5,46.2,30.11,SSW,194,0.0,2.0,85,0.00,,,0.00,Wunderground v.1.15,2013-04-26 11:28:00,
2013-04-26 04:33:00,50.5,46.2,30.11,SSW,194,0.0,1.0,85,0.00,,,0.00,Wunderground v.1.15,2013-04-26 11:33:00,
2013-04-26 04:38:00,50.5,46.2,30.12,SSW,194,1.0,2.0,85,0.00,,,0.00,Wunderground v.1.15,2013-04-26 11:38:00,
2013-04-26 04:43:00,50.4,46.1,30.12,SSW,194,0.0,3.0,85,0.00,,,0.00,Wunderground v.1.15,2013-04-26 11:43:00,
2013-04-26 04:48:00,50.4,46.1,30.12,SSW,194,0.0,3.0,85,0.00,,,0.00,Wunderground v.1.15,2013-04-26 11:48:00,
2013-04-26 04:53:00,50.3,46.0,30.12,SSW,194,0.0,3.0,85,0.00,,,0.00,Wunderground v.1.15,2013-04-26 11:53:00,
2013-04-26 04:58:00,50.2,45.9,30.12,SSW,194,0.0,3.0,85,0.00,,,0.00,Wunderground v.1.15,2013-04-26 11:58:00,
2013-04-26 05:03:00,50.1,46.1,30.12,SSW,194,1.0,1.0,86,0.00,,,0.00,Wunderground v.1.15,2013-04-26 12:03:00,
2013-04-26 05:08:00,50.1,46.1,30.13,SSW,194,0.0,1.0,86,0.00,,,0.00,Wunderground v.1.15,2013-04-26 12:08:00,
2013-04-26 05:13:00,50.0,46.0,30.12,SSW,194,1.0,2.0,86,0.00,,,0.00,Wunderground v.1.15,2013-04-26 12:13:00,
2013-04-26 05:18:00,49.9,45.9,30.13,SSW,194,0.0,2.0,86,0.00,,,0.00,Wunderground v.1.15,2013-04-26 12:18:00,
2013-04-26 05:24:00,49.8,45.8,30.13,SSW,194,0.0,1.0,86,0.00,,,0.00,Wunderground v.1.15,2013-04-26 12:24:00,
2013-04-26 05:29:00,49.7,45.7,30.13,SSW,194,0.0,2.0,86,0.00,,,0.00,Wunderground v.1.15,2013-04-26 12:29:00,
2013-04-26 05:34:00,49.6,45.9,30.13,SSW,194,0.0,2.0,87,0.00,,,0.00,Wunderground v.1.15,2013-04-26 12:34:00,
2013-04-26 05:39:00,49.5,45.8,30.13,SSW,194,0.0,2.0,87,0.00,,,0.00,Wunderground v.1.15,2013-04-26 12:39:00,
2013-04-26 05:44:00,49.5,45.8,30.13,SSW,194,0.0,1.0,87,0.00,,,0.00,Wunderground v.1.15,2013-04-26 12:44:00,
2013-04-26 05:49:00,49.4,45.7,30.13,SSW,194,0.0,1.0,87,0.00,,,0.00,Wunderground v.1.15,2013-04-26 12:49:00,
2013-04-26 05:54:00,49.3,45.6,30.13,SSW,194,0.0,2.0,87,0.00,,,0.00,Wunderground v.1.15,2013-04-26 12:54:00,
2013-04-26 05:59:00,49.2,45.5,30.13,SSW,194,0.0,2.0,87,0.00,,,0.00,Wunderground v.1.15,2013-04-26 12:59:00,
2013-04-26 06:04:00,49.2,45.5,30.13,SSW,194,0.0,0.0,87,0.00,,,0.00,Wunderground v.1.15,2013-04-26 13:04:00,
2013-04-26 06:09:00,49.1,45.4,30.14,SSW,194,0.0,1.0,87,0.00,,,0.00,Wunderground v.1.15,2013-04-26 13:09:00,
2013-04-26 06:14:00,49.1,45.7,30.14,SSW,194,0.0,0.0,88,0.00,,,0.00,Wunderground v.1.15,2013-04-26 13:14:00,
2013-04-26 06:19:00,49.0,45.6,30.14,SSW,194,0.0,0.0,88,0.00,,,0.00,Wunderground v.1.15,2013-04-26 13:19:00,
2013-04-26 06:24:00,49.0,45.6,30.15,SSW,194,0.0,0.0,88,0.00,,,0.00,Wunderground v.1.15,2013-04-26 13:24:00,
2013-04-26 06:29:00,48.8,45.4,30.15,SSW,194,2.0,2.0,88,0.00,,,0.00,Wunderground v.1.15,2013-04-26 13:29:00,
2013-04-26 06:34:00,48.7,45.3,30.15,SSW,194,0.0,2.0,88,0.00,,,0.00,Wunderground v.1.15,2013-04-26 13:34:00,
2013-04-26 06:39:00,48.7,45.3,30.15,SSW,194,1.0,2.0,88,0.00,,,0.00,Wunderground v.1.15,2013-04-26 13:39:00,
2013-04-26 06:44:00,48.7,45.3,30.15,SSW,194,0.0,1.0,88,0.00,,,0.00,Wunderground v.1.15,2013-04-26 13:44:00,
2013-04-26 06:49:00,48.7,45.6,30.16,SSW,194,0.0,1.0,89,0.00,,,0.00,Wunderground v.1.15,2013-04-26 13:49:00,
2013-04-26 06:54:00,48.7,45.6,30.16,SSW,194,1.0,2.0,89,0.00,,,0.00,Wunderground v.1.15,2013-04-26 13:54:00,
2013-04-26 06:59:00,48.8,45.7,30.16,SSW,194,1.0,2.0,89,0.00,,,0.00,Wunderground v.1.15,2013-04-26 13:59:00,
2013-04-26 07:04:00,48.9,45.8,30.16,SSW,194,0.0,3.0,89,0.00,,,0.00,Wunderground v.1.15,2013-04-26 14:04:00,
2013-04-26 07:09:00,49.0,45.9,30.17,SSW,194,0.0,3.0,89,0.00,,,0.00,Wunderground v.1.15,2013-04-26 14:09:00,
2013-04-26 07:14:00,49.1,46.0,30.17,SSW,194,0.0,1.0,89,0.00,,,0.00,Wunderground v.1.15,2013-04-26 14:14:00,
2013-04-26 07:19:00,49.2,46.1,30.17,SSW,194,0.0,1.0,89,0.00,,,0.00,Wunderground v.1.15,2013-04-26 14:19:00,
2013-04-26 07:24:00,49.4,46.6,30.17,SSW,194,0.0,2.0,90,0.00,,,0.00,Wunderground v.1.15,2013-04-26 14:24:00,
2013-04-26 07:29:00,49.7,46.9,30.18,SSW,194,1.0,2.0,90,0.00,,,0.00,Wunderground v.1.15,2013-04-26 14:29:00,
2013-04-26 07:34:00,50.1,47.0,30.18,SSW,194,0.0,1.0,89,0.00,,,0.00,Wunderground v.1.15,2013-04-26 14:34:00,
2013-04-26 07:39:00,50.4,47.3,30.18,SSW,194,0.0,1.0,89,0.00,,,0.00,Wunderground v.1.15,2013-04-26 14:39:00,
2013-04-26 07:44:00,50.8,47.4,30.18,SSW,194,0.0,2.0,88,0.00,,,0.00,Wunderground v.1.15,2013-04-26 14:44:00,
2013-04-26 07:49:00,51.2,47.8,30.18,SSW,194,1.0,2.0,88,0.00,,,0.00,Wunderground v.1.15,2013-04-26 14:49:00,
2013-04-26 07:54:00,51.6,47.9,30.18,SSW,194,0.0,2.0,87,0.00,,,0.00,Wunderground v.1.15,2013-04-26 14:54:00,
2013-04-26 07:59:00,52.2,48.1,30.19,SSW,194,0.0,2.0,86,0.00,,,0.00,Wunderground v.1.15,2013-04-26 14:59:00,
2013-04-26 08:04:00,52.8,48.4,30.19,SSW,194,0.0,1.0,85,0.00,,,0.00,Wunderground v.1.15,2013-04-26 15:04:00,
2013-04-26 08:09:00,53.1,48.4,30.19,SSW,194,0.0,1.0,84,0.00,,,0.00,Wunderground v.1.15,2013-04-26 15:09:00,
2013-04-26 08:14:00,53.5,48.5,30.19,SSW,194,0.0,1.0,83,0.00,,,0.00,Wunderground v.1.15,2013-04-26 15:14:00,
2013-04-26 08:20:00,53.9,48.5,30.19,SSW,194,0.0,1.0,82,0.00,,,0.00,Wunderground v.1.15,2013-04-26 15:20:00,
2013-04-26 08:25:00,54.4,48.7,30.19,SSW,194,1.0,4.0,81,0.00,,,0.00,Wunderground v.1.15,2013-04-26 15:25:00,
2013-04-26 08:30:00,54.8,48.7,30.19,SSW,194,1.0,1.0,80,0.00,,,0.00,Wunderground v.1.15,2013-04-26 15:30:00,
2013-04-26 08:35:00,55.2,48.8,30.19,SSW,194,2.0,3.0,79,0.00,,,0.00,Wunderground v.1.15,2013-04-26 15:35:00,
2013-04-26 08:40:00,55.6,48.8,30.20,SSW,194,1.0,2.0,78,0.00,,,0.00,Wunderground v.1.15,2013-04-26 15:40:00,
2013-04-26 08:45:00,56.1,49.3,30.19,SSW,194,1.0,4.0,78,0.00,,,0.00,Wunderground v.1.15,2013-04-26 15:45:00,
2013-04-26 08:50:00,56.3,49.2,30.20,SSW,194,0.0,2.0,77,0.00,,,0.00,Wunderground v.1.15,2013-04-26 15:50:00,
2013-04-26 08:55:00,56.5,49.0,30.19,SSW,194,1.0,4.0,76,0.00,,,0.00,Wunderground v.1.15,2013-04-26 15:55:00,
2013-04-26 09:00:00,56.8,49.3,30.20,SSW,194,1.0,1.0,76,0.00,,,0.00,Wunderground v.1.15,2013-04-26 16:00:00,
2013-04-26 09:05:00,57.2,49.7,30.20,SSW,194,0.0,4.0,76,0.00,,,0.00,Wunderground v.1.15,2013-04-26 16:05:00,
2013-04-26 09:10:00,57.6,49.7,30.20,SSW,194,0.0,2.0,75,0.00,,,0.00,Wunderground v.1.15,2013-04-26 16:10:00,
2013-04-26 09:15:00,58.2,50.0,30.20,SSW,194,1.0,4.0,74,0.00,,,0.00,Wunderground v.1.15,2013-04-26 16:15:00,
2013-04-26 09:20:00,58.8,50.2,30.20,SSW,194,2.0,3.0,73,0.00,,,0.00,Wunderground v.1.15,2013-04-26 16:20:00,
2013-04-26 09:25:00,59.2,50.5,30.20,SSW,194,1.0,5.0,73,0.00,,,0.00,Wunderground v.1.15,2013-04-26 16:25:00,
2013-04-26 09:30:00,59.7,50.7,30.20,SSW,194,2.0,3.0,72,0.00,,,0.00,Wunderground v.1.15,2013-04-26 16:30:00,
2013-04-26 09:35:00,60.3,51.2,30.20,SSW,205,4.0,4.0,72,0.00,,,0.00,Wunderground v.1.15,2013-04-26 16:35:00,
2013-04-26 09:40:00,60.5,50.7,30.20,SSW,194,2.0,5.0,70,0.00,,,0.00,Wunderground v.1.15,2013-04-26 16:40:00,
2013-04-26 09:45:00,60.8,50.6,30.20,South,187,2.0,5.0,69,0.00,,,0.00,Wunderground v.1.15,2013-04-26 16:45:00,
2013-04-26 09:50:00,61.1,50.8,30.20,South,175,5.0,6.0,69,0.00,,,0.00,Wunderground v.1.15,2013-04-26 16:50:00,
2013-04-26 09:56:00,61.7,51.4,30.20,South,173,3.0,7.0,69,0.00,,,0.00,Wunderground v.1.15,2013-04-26 16:56:00,
2013-04-26 10:01:00,62.3,51.2,30.20,SSE,148,5.0,5.0,67,0.00,,,0.00,Wunderground v.1.15,2013-04-26 17:01:00,
2013-04-26 10:06:00,62.4,51.3,30.20,SSE,150,3.0,7.0,67,0.00,,,0.00,Wunderground v.1.15,2013-04-26 17:06:00,
2013-04-26 10:11:00,62.6,51.1,30.20,South,178,4.0,5.0,66,0.00,,,0.00,Wunderground v.1.15,2013-04-26 17:11:00,
2013-04-26 10:16:00,62.7,51.2,30.21,South,171,6.0,7.0,66,0.00,,,0.00,Wunderground v.1.15,2013-04-26 17:16:00,
2013-04-26 10:21:00,62.9,51.0,30.21,SSW,193,1.0,4.0,65,0.00,,,0.00,Wunderground v.1.15,2013-04-26 17:21:00,
2013-04-26 10:26:00,63.1,51.1,30.20,South,189,3.0,5.0,65,0.00,,,0.00,Wunderground v.1.15,2013-04-26 17:26:00,
2013-04-26 10:31:00,63.4,51.4,30.20,South,174,3.0,5.0,65,0.00,,,0.00,Wunderground v.1.15,2013-04-26 17:31:00,
2013-04-26 10:36:00,63.7,51.3,30.20,SSW,196,2.0,6.0,64,0.00,,,0.00,Wunderground v.1.15,2013-04-26 17:36:00,
2013-04-26 10:41:00,64.3,51.9,30.20,SSW,194,4.0,4.0,64,0.00,,,0.00,Wunderground v.1.15,2013-04-26 17:41:00,
2013-04-26 10:46:00,64.9,52.0,30.20,South,188,3.0,6.0,63,0.00,,,0.00,Wunderground v.1.15,2013-04-26 17:46:00,
2013-04-26 10:51:00,65.1,52.2,30.20,South,173,2.0,6.0,63,0.00,,,0.00,Wunderground v.1.15,2013-04-26 17:51:00,
2013-04-26 10:56:00,65.5,51.7,30.20,South,185,5.0,8.0,61,0.00,,,0.00,Wunderground v.1.15,2013-04-26 17:56:00,
2013-04-26 11:01:00,65.7,52.3,30.20,South,171,2.0,6.0,62,0.00,,,0.00,Wunderground v.1.15,2013-04-26 18:01:00,
2013-04-26 11:06:00,66.1,52.3,30.20,SSE,168,7.0,7.0,61,0.00,,,0.00,Wunderground v.1.15,2013-04-26 18:06:00,
2013-04-26 11:11:00,66.5,52.6,30.20,South,190,3.0,6.0,61,0.00,,,0.00,Wunderground v.1.15,2013-04-26 18:11:00,
2013-04-26 11:16:00,66.7,52.4,30.20,South,176,5.0,7.0,60,0.00,,,0.00,Wunderground v.1.15,2013-04-26 18:16:00,
2013-04-26 11:21:00,66.6,52.7,30.20,South,183,6.0,7.0,61,0.00,,,0.00,Wunderground v.1.15,2013-04-26 18:21:00,
2013-04-26 11:26:00,66.8,52.5,30.20,South,170,5.0,10.0,60,0.00,,,0.00,Wunderground v.1.15,2013-04-26 18:26:00,
2013-04-26 11:31:00,67.2,52.8,30.20,South,183,6.0,8.0,60,0.00,,,0.00,Wunderground v.1.15,2013-04-26 18:31:00,
2013-04-26 11:36:00,67.2,52.4,30.20,South,188,6.0,9.0,59,0.00,,,0.00,Wunderground v.1.15,2013-04-26 18:36:00,
2013-04-26 11:41:00,67.5,52.7,30.20,SW,214,8.0,8.0,59,0.00,,,0.00,Wunderground v.1.15,2013-04-26 18:41:00,
2013-04-26 11:46:00,67.6,52.8,30.20,SSE,167,5.0,9.0,59,0.00,,,0.00,Wunderground v.1.15,2013-04-26 18:46:00,
2013-04-26 11:51:00,68.3,52.9,30.20,SSW,195,3.0,6.0,58,0.00,,,0.00,Wunderground v.1.15,2013-04-26 18:51:00,
2013-04-26 11:56:00,68.9,53.0,30.20,SSE,153,4.0,10.0,57,0.00,,,0.00,Wunderground v.1.15,2013-04-26 18:56:00,
2013-04-26 12:01:00,69.0,53.1,30.19,SSE,158,5.0,7.0,57,0.00,,,0.00,Wunderground v.1.15,2013-04-26 19:01:00,
2013-04-26 12:06:00,69.6,53.2,30.19,SSW,198,4.0,7.0,56,0.00,,,0.00,Wunderground v.1.15,2013-04-26 19:06:00,
2013-04-26 12:11:00,69.8,53.4,30.19,SSE,164,0.0,6.0,56,0.00,,,0.00,Wunderground v.1.15,2013-04-26 19:11:00,
2013-04-26 12:16:00,70.1,53.2,30.19,South,180,4.0,9.0,55,0.00,,,0.00,Wunderground v.1.15,2013-04-26 19:16:00,
2013-04-26 12:21:00,70.4,53.5,30.19,South,175,2.0,7.0,55,0.00,,,0.00,Wunderground v.1.15,2013-04-26 19:21:00,
2013-04-26 12:26:00,70.0,53.6,30.18,SE,140,6.0,10.0,56,0.00,,,0.00,Wunderground v.1.15,2013-04-26 19:26:00,
2013-04-26 12:31:00,71.1,53.6,30.18,SSE,151,0.0,6.0,54,0.00,,,0.00,Wunderground v.1.15,2013-04-26 19:31:00,
2013-04-26 12:36:00,71.1,53.1,30.18,South,173,3.0,8.0,53,0.00,,,0.00,Wunderground v.1.15,2013-04-26 19:36:00,
2013-04-26 12:41:00,71.8,53.2,30.18,WSW,237,7.0,7.0,52,0.00,,,0.00,Wunderground v.1.15,2013-04-26 19:41:00,
2013-04-26 12:47:00,71.6,53.0,30.17,South,170,2.0,7.0,52,0.00,,,0.00,Wunderground v.1.15,2013-04-26 19:47:00,
2013-04-26 12:52:00,72.2,53.6,30.17,SE,145,3.0,8.0,52,0.00,,,0.00,Wunderground v.1.15,2013-04-26 19:52:00,
2013-04-26 12:57:00,72.3,53.7,30.17,South,186,4.0,8.0,52,0.00,,,0.00,Wunderground v.1.15,2013-04-26 19:57:00,
2013-04-26 13:02:00,72.5,53.3,30.17,SSE,147,4.0,9.0,51,0.00,,,0.00,Wunderground v.1.15,2013-04-26 20:02:00,
2013-04-26 13:07:00,72.4,53.8,30.17,SSE,154,3.0,11.0,52,0.00,,,0.00,Wunderground v.1.15,2013-04-26 20:07:00,
2013-04-26 13:12:00,73.1,53.9,30.17,SW,216,5.0,12.0,51,0.00,,,0.00,Wunderground v.1.15,2013-04-26 20:12:00,
2013-04-26 13:17:00,73.0,54.3,30.17,SSE,163,4.0,12.0,52,0.00,,,0.00,Wunderground v.1.15,2013-04-26 20:17:00,
2013-04-26 13:22:00,73.3,54.6,30.17,SSW,210,6.0,11.0,52,0.00,,,0.00,Wunderground v.1.15,2013-04-26 20:22:00,
2013-04-26 13:27:00,73.4,54.2,30.17,SSW,195,9.0,12.0,51,0.00,,,0.00,Wunderground v.1.15,2013-04-26 20:27:00,
2013-04-26 13:32:00,73.7,54.4,30.17,South,178,9.0,12.0,51,0.00,,,0.00,Wunderground v.1.15,2013-04-26 20:32:00,
2013-04-26 13:37:00,74.2,54.4,30.16,South,178,2.0,12.0,50,0.00,,,0.00,Wunderground v.1.15,2013-04-26 20:37:00,
2013-04-26 13:42:00,74.2,54.4,30.16,SSW,198,7.0,11.0,50,0.00,,,0.00,Wunderground v.1.15,2013-04-26 20:42:00,
2013-04-26 13:47:00,74.1,54.3,30.16,SSW,211,3.0,11.0,50,0.00,,,0.00,Wunderground v.1.15,2013-04-26 20:47:00,
2013-04-26 13:52:00,74.8,54.9,30.16,South,187,3.0,9.0,50,0.00,,,0.00,Wunderground v.1.15,2013-04-26 20:52:00,
2013-04-26 13:57:00,75.1,54.6,30.16,SSW,209,7.0,10.0,49,0.00,,,0.00,Wunderground v.1.15,2013-04-26 20:57:00,
2013-04-26 14:02:00,75.3,54.8,30.16,SSW,196,1.0,8.0,49,0.00,,,0.00,Wunderground v.1.15,2013-04-26 21:02:00,
2013-04-26 14:07:00,75.2,54.7,30.16,SW,216,8.0,13.0,49,0.00,,,0.00,Wunderground v.1.15,2013-04-26 21:07:00,
2013-04-26 14:12:00,75.4,55.5,30.15,SSW,213,3.0,9.0,50,0.00,,,0.00,Wunderground v.1.15,2013-04-26 21:12:00,
2013-04-26 14:17:00,75.9,55.4,30.15,SSW,212,5.0,10.0,49,0.00,,,0.00,Wunderground v.1.15,2013-04-26 21:17:00,
2013-04-26 14:22:00,76.3,55.7,30.15,SW,225,6.0,11.0,49,0.00,,,0.00,Wunderground v.1.15,2013-04-26 21:22:00,
2013-04-26 14:27:00,76.0,55.5,30.15,SSW,198,9.0,13.0,49,0.00,,,0.00,Wunderground v.1.15,2013-04-26 21:27:00,
2013-04-26 14:32:00,76.1,55.0,30.15,SSE,157,7.0,12.0,48,0.00,,,0.00,Wunderground v.1.15,2013-04-26 21:32:00,
2013-04-26 14:37:00,76.6,55.4,30.15,SSW,207,3.0,12.0,48,0.00,,,0.00,Wunderground v.1.15,2013-04-26 21:37:00,
2013-04-26 14:43:00,76.9,55.1,30.15,SW,221,8.0,10.0,47,0.00,,,0.00,Wunderground v.1.15,2013-04-26 21:43:00,
2013-04-26 14:48:00,76.8,54.5,30.15,WSW,245,6.0,12.0,46,0.00,,,0.00,Wunderground v.1.15,2013-04-26 21:48:00,
2013-04-26 14:53:00,77.0,54.6,30.14,SSE,161,4.0,12.0,46,0.00,,,0.00,Wunderground v.1.15,2013-04-26 21:53:00,
2013-04-26 14:58:00,77.3,54.9,30.14,SSW,209,8.0,12.0,46,0.00,,,0.00,Wunderground v.1.15,2013-04-26 21:58:00,
2013-04-26 15:03:00,77.6,54.6,30.14,SW,221,6.0,12.0,45,0.00,,,0.00,Wunderground v.1.15,2013-04-26 22:03:00,
2013-04-26 15:08:00,77.5,55.7,30.14,SSW,192,4.0,12.0,47,0.00,,,0.00,Wunderground v.1.15,2013-04-26 22:08:00,
2013-04-26 15:13:00,78.2,55.7,30.13,SSW,202,6.0,8.0,46,0.00,,,0.00,Wunderground v.1.15,2013-04-26 22:13:00,
2013-04-26 15:18:00,78.1,55.6,30.13,SSW,205,7.0,13.0,46,0.00,,,0.00,Wunderground v.1.15,2013-04-26 22:18:00,
2013-04-26 15:23:00,78.2,55.7,30.13,South,185,3.0,10.0,46,0.00,,,0.00,Wunderground v.1.15,2013-04-26 22:23:00,
2013-04-26 15:28:00,78.6,54.9,30.13,SSW,211,7.0,11.0,44,0.00,,,0.00,Wunderground v.1.15,2013-04-26 22:28:00,
2013-04-26 15:33:00,78.5,55.4,30.13,SSE,159,6.0,12.0,45,0.00,,,0.00,Wunderground v.1.15,2013-04-26 22:33:00,
2013-04-26 15:38:00,78.5,55.4,30.12,SSW,199,3.0,12.0,45,0.00,,,0.00,Wunderground v.1.15,2013-04-26 22:38:00,
2013-04-26 15:43:00,78.8,55.7,30.12,South,186,6.0,9.0,45,0.00,,,0.00,Wunderground v.1.15,2013-04-26 22:43:00,
2013-04-26 15:48:00,79.0,55.8,30.12,South,178,6.0,13.0,45,0.00,,,0.00,Wunderground v.1.15,2013-04-26 22:48:00,
2013-04-26 15:53:00,78.9,54.5,30.12,South,181,3.0,12.0,43,0.00,,,0.00,Wunderground v.1.15,2013-04-26 22:53:00,
2013-04-26 15:58:00,79.3,55.5,30.12,SW,223,7.0,12.0,44,0.00,,,0.00,Wunderground v.1.15,2013-04-26 22:58:00,
2013-04-26 16:03:00,79.0,55.8,30.11,SSW,199,6.0,12.0,45,0.00,,,0.00,Wunderground v.1.15,2013-04-26 23:03:00,
2013-04-26 16:08:00,79.2,55.4,30.11,South,182,6.0,12.0,44,0.00,,,0.00,Wunderground v.1.15,2013-04-26 23:08:00,
2013-04-26 16:13:00,79.5,55.7,30.11,SSW,203,5.0,10.0,44,0.00,,,0.00,Wunderground v.1.15,2013-04-26 23:13:00,
2013-04-26 16:18:00,79.1,55.9,30.11,SSW,198,4.0,14.0,45,0.00,,,0.00,Wunderground v.1.15,2013-04-26 23:18:00,
2013-04-26 16:23:00,79.3,56.1,30.11,SSW,211,6.0,11.0,45,0.00,,,0.00,Wunderground v.1.15,2013-04-26 23:23:00,
2013-04-26 16:28:00,79.5,56.3,30.10,SSW,207,2.0,11.0,45,0.00,,,0.00,Wunderground v.1.15,2013-04-26 23:28:00,
2013-04-26 16:33:00,79.2,56.6,30.10,SSW,194,3.0,11.0,46,0.00,,,0.00,Wunderground v.1.15,2013-04-26 23:33:00,
2013-04-26 16:38:00,79.1,55.9,30.10,SSE,166,3.0,12.0,45,0.00,,,0.00,Wunderground v.1.15,2013-04-26 23:38:00,
2013-04-26 16:43:00,79.2,56.0,30.10,South,170,4.0,13.0,45,0.00,,,0.00,Wunderground v.1.15,2013-04-26 23:43:00,
2013-04-26 16:48:00,79.3,56.1,30.10,South,185,6.0,14.0,45,0.00,,,0.00,Wunderground v.1.15,2013-04-26 23:48:00,
2013-04-26 16:53:00,79.6,56.4,30.10,SSW,209,6.0,15.0,45,0.00,,,0.00,Wunderground v.1.15,2013-04-26 23:53:00,
2013-04-26 17:06:00,80.3,55.8,30.09,SSW,208,5.0,10.0,43,0.00,,,0.00,Wunderground v.1.15,2013-04-27 00:06:00,
2013-04-26 17:11:00,80.4,55.2,30.09,SW,228,6.0,10.0,42,0.00,,,0.00,Wunderground v.1.15,2013-04-27 00:11:00,
2013-04-26 17:16:00,80.6,56.0,30.09,South,172,7.0,13.0,43,0.00,,,0.00,Wunderground v.1.15,2013-04-27 00:16:00,
2013-04-26 17:21:00,80.2,56.3,30.09,SSW,196,3.0,11.0,44,0.00,,,0.00,Wunderground v.1.15,2013-04-27 00:21:00,
2013-04-26 17:26:00,80.3,55.8,30.09,SW,223,11.0,12.0,43,0.00,,,0.00,Wunderground v.1.15,2013-04-27 00:26:00,
2013-04-26 17:31:00,80.3,55.8,30.09,SW,217,9.0,12.0,43,0.00,,,0.00,Wunderground v.1.15,2013-04-27 00:31:00,
2013-04-26 17:36:00,80.0,55.5,30.09,SSW,211,7.0,15.0,43,0.00,,,0.00,Wunderground v.1.15,2013-04-27 00:36:00,
2013-04-26 17:41:00,79.8,55.9,30.09,SSW,198,7.0,9.0,44,0.00,,,0.00,Wunderground v.1.15,2013-04-27 00:41:00,
2013-04-26 17:46:00,79.9,56.0,30.09,SW,214,5.0,14.0,44,0.00,,,0.00,Wunderground v.1.15,2013-04-27 00:46:00,
2013-04-26 17:51:00,79.7,55.9,30.09,North,360,4.0,9.0,44,0.00,,,0.00,Wunderground v.1.15,2013-04-27 00:51:00,
2013-04-26 17:56:00,79.7,55.9,30.09,SW,224,4.0,11.0,44,0.00,,,0.00,Wunderground v.1.15,2013-04-27 00:56:00,
2013-04-26 18:01:00,79.4,55.6,30.08,South,183,5.0,8.0,44,0.00,,,0.00,Wunderground v.1.15,2013-04-27 01:01:00,
2013-04-26 18:06:00,79.2,54.8,30.09,South,178,1.0,11.0,43,0.00,,,0.00,Wunderground v.1.15,2013-04-27 01:06:00,
2013-04-26 18:11:00,78.8,54.4,30.09,SSE,167,5.0,8.0,43,0.00,,,0.00,Wunderground v.1.15,2013-04-27 01:11:00,
2013-04-26 18:16:00,78.2,54.5,30.09,SW,223,3.0,10.0,44,0.00,,,0.00,Wunderground v.1.15,2013-04-27 01:16:00,
2013-04-26 18:21:00,77.5,54.5,30.09,SSE,165,12.0,12.0,45,0.00,,,0.00,Wunderground v.1.15,2013-04-27 01:21:00,
2013-04-26 18:26:00,76.6,54.3,30.09,South,171,3.0,12.0,46,0.00,,,0.00,Wunderground v.1.15,2013-04-27 01:26:00,
2013-04-26 18:31:00,76.1,53.8,30.09,SSW,201,4.0,8.0,46,0.00,,,0.00,Wunderground v.1.15,2013-04-27 01:31:00,
2013-04-26 18:36:00,75.6,53.9,30.09,SSW,195,6.0,12.0,47,0.00,,,0.00,Wunderground v.1.15,2013-04-27 01:36:00,
2013-04-26 18:41:00,75.1,53.5,30.09,SW,231,5.0,8.0,47,0.00,,,0.00,Wunderground v.1.15,2013-04-27 01:41:00,
2013-04-26 18:46:00,74.8,53.2,30.08,SSW,202,4.0,13.0,47,0.00,,,0.00,Wunderground v.1.15,2013-04-27 01:46:00,
2013-04-26 18:51:00,74.3,53.3,30.08,SSW,200,5.0,7.0,48,0.00,,,0.00,Wunderground v.1.15,2013-04-27 01:51:00,
2013-04-26 18:56:00,74.0,53.1,30.08,South,182,2.0,8.0,48,0.00,,,0.00,Wunderground v.1.15,2013-04-27 01:56:00,
2013-04-26 19:01:00,73.6,52.7,30.09,SW,215,4.0,7.0,48,0.00,,,0.00,Wunderground v.1.15,2013-04-27 02:01:00,
2013-04-26 19:06:00,73.3,52.4,30.09,SSW,196,5.0,7.0,48,0.00,,,0.00,Wunderground v.1.15,2013-04-27 02:06:00,
2013-04-26 19:11:00,73.0,52.7,30.09,SW,225,0.0,7.0,49,0.00,,,0.00,Wunderground v.1.15,2013-04-27 02:11:00,
2013-04-26 19:16:00,72.7,52.4,30.09,South,187,3.0,7.0,49,0.00,,,0.00,Wunderground v.1.15,2013-04-27 02:16:00,
2013-04-26 19:21:00,72.4,52.2,30.09,South,190,4.0,7.0,49,0.00,,,0.00,Wunderground v.1.15,2013-04-27 02:21:00,
2013-04-26 19:26:00,71.9,52.2,30.09,South,186,3.0,8.0,50,0.00,,,0.00,Wunderground v.1.15,2013-04-27 02:26:00,
2013-04-26 19:31:00,71.5,51.9,30.09,South,169,4.0,5.0,50,0.00,,,0.00,Wunderground v.1.15,2013-04-27 02:31:00,
2013-04-26 19:36:00,70.7,51.7,30.09,SSW,200,5.0,8.0,51,0.00,,,0.00,Wunderground v.1.15,2013-04-27 02:36:00,
2013-04-26 19:41:00,70.0,51.0,30.09,SSW,204,6.0,8.0,51,0.00,,,0.00,Wunderground v.1.15,2013-04-27 02:41:00,
2013-04-26 19:46:00,69.5,51.1,30.09,SSW,200,5.0,8.0,52,0.00,,,0.00,Wunderground v.1.15,2013-04-27 02:46:00,
2013-04-26 19:51:00,69.1,50.7,30.09,SW,215,3.0,8.0,52,0.00,,,0.00,Wunderground v.1.15,2013-04-27 02:51:00,
2013-04-26 19:56:00,68.7,50.4,30.09,SSW,201,6.0,8.0,52,0.00,,,0.00,Wunderground v.1.15,2013-04-27 02:56:00,
2013-04-26 20:01:00,68.2,49.9,30.09,South,190,5.0,9.0,52,0.00,,,0.00,Wunderground v.1.15,2013-04-27 03:01:00,
2013-04-26 20:06:00,67.8,49.5,30.09,South,183,6.0,9.0,52,0.00,,,0.00,Wunderground v.1.15,2013-04-27 03:06:00,
2013-04-26 20:11:00,67.5,49.8,30.10,South,186,3.0,6.0,53,0.00,,,0.00,Wunderground v.1.15,2013-04-27 03:11:00,
2013-04-26 20:16:00,67.2,49.5,30.10,South,190,7.0,7.0,53,0.00,,,0.00,Wunderground v.1.15,2013-04-27 03:16:00,
2013-04-26 20:22:00,66.6,48.9,30.10,SSW,213,4.0,8.0,53,0.00,,,0.00,Wunderground v.1.15,2013-04-27 03:22:00,
2013-04-26 20:27:00,66.0,48.9,30.10,South,180,1.0,8.0,54,0.00,,,0.00,Wunderground v.1.15,2013-04-27 03:27:00,
2013-04-26 20:32:00,65.5,48.9,30.10,SSW,192,7.0,7.0,55,0.00,,,0.00,Wunderground v.1.15,2013-04-27 03:32:00,
2013-04-26 20:37:00,65.0,48.4,30.10,SSW,198,8.0,11.0,55,0.00,,,0.00,Wunderground v.1.15,2013-04-27 03:37:00,
2013-04-26 20:42:00,64.3,48.3,30.10,SSW,192,5.0,6.0,56,0.00,,,0.00,Wunderground v.1.15,2013-04-27 03:42:00,
2013-04-26 20:47:00,63.8,47.8,30.11,South,188,6.0,10.0,56,0.00,,,0.00,Wunderground v.1.15,2013-04-27 03:47:00,
2013-04-26 20:52:00,63.4,47.4,30.11,South,175,5.0,9.0,56,0.00,,,0.00,Wunderground v.1.15,2013-04-27 03:52:00,
2013-04-26 20:57:00,62.8,47.3,30.11,SSW,199,5.0,10.0,57,0.00,,,0.00,Wunderground v.1.15,2013-04-27 03:57:00,
2013-04-26 21:01:00,62.6,47.1,30.11,SSW,192,3.0,6.0,57,0.00,,,0.00,Wunderground v.1.15,2013-04-27 04:01:00,
2013-04-26 21:06:00,62.3,47.3,30.11,South,182,5.0,9.0,58,0.00,,,0.00,Wunderground v.1.15,2013-04-27 04:06:00,
2013-04-26 21:12:00,62.0,47.0,30.11,South,191,2.0,11.0,58,0.00,,,0.00,Wunderground v.1.15,2013-04-27 04:12:00,
2013-04-26 21:17:00,61.6,46.7,30.11,SSW,194,6.0,11.0,58,0.00,,,0.00,Wunderground v.1.15,2013-04-27 04:17:00,
2013-04-26 21:22:00,61.3,46.8,30.12,South,182,4.0,8.0,59,0.00,,,0.00,Wunderground v.1.15,2013-04-27 04:22:00,
2013-04-26 21:27:00,61.0,46.6,30.11,SSW,211,8.0,10.0,59,0.00,,,0.00,Wunderground v.1.15,2013-04-27 04:27:00,
2013-04-26 21:32:00,60.7,46.7,30.12,SSW,197,7.0,9.0,60,0.00,,,0.00,Wunderground v.1.15,2013-04-27 04:32:00,
2013-04-26 21:37:00,60.4,47.3,30.12,SSW,205,4.0,12.0,62,0.00,,,0.00,Wunderground v.1.15,2013-04-27 04:37:00,
2013-04-26 21:42:00,60.1,47.0,30.12,SSW,194,8.0,10.0,62,0.00,,,0.00,Wunderground v.1.15,2013-04-27 04:42:00,
2013-04-26 21:47:00,59.9,47.3,30.12,SSW,203,5.0,10.0,63,0.00,,,0.00,Wunderground v.1.15,2013-04-27 04:47:00,
2013-04-26 21:52:00,59.7,47.1,30.12,South,184,5.0,8.0,63,0.00,,,0.00,Wunderground v.1.15,2013-04-27 04:52:00,
2013-04-26 21:57:00,59.6,47.0,30.12,South,188,5.0,10.0,63,0.00,,,0.00,Wunderground v.1.15,2013-04-27 04:57:00,
2013-04-26 22:02:00,59.4,47.2,30.13,South,182,6.0,9.0,64,0.00,,,0.00,Wunderground v.1.15,2013-04-27 05:02:00,
2013-04-26 22:07:00,59.3,47.5,30.13,South,180,5.0,9.0,65,0.00,,,0.00,Wunderground v.1.15,2013-04-27 05:07:00,
2013-04-26 22:12:00,59.0,47.7,30.13,South,178,4.0,10.0,66,0.00,,,0.00,Wunderground v.1.15,2013-04-27 05:12:00,
2013-04-26 22:17:00,58.8,47.9,30.13,SSW,202,1.0,10.0,67,0.00,,,0.00,Wunderground v.1.15,2013-04-27 05:17:00,
2013-04-26 22:22:00,58.6,47.7,30.13,SSW,202,4.0,9.0,67,0.00,,,0.00,Wunderground v.1.15,2013-04-27 05:22:00,
2013-04-26 22:27:00,58.5,48.0,30.13,SSW,194,4.0,9.0,68,0.00,,,0.00,Wunderground v.1.15,2013-04-27 05:27:00,
2013-04-26 22:32:00,58.3,47.8,30.13,SSW,206,5.0,7.0,68,0.00,,,0.00,Wunderground v.1.15,2013-04-27 05:32:00,
2013-04-26 22:37:00,58.1,48.0,30.13,SSW,200,5.0,9.0,69,0.00,,,0.00,Wunderground v.1.15,2013-04-27 05:37:00,
2013-04-26 22:42:00,57.9,47.8,30.13,South,186,3.0,9.0,69,0.00,,,0.00,Wunderground v.1.15,2013-04-27 05:42:00,
2013-04-26 22:47:00,57.7,48.0,30.13,SW,215,1.0,9.0,70,0.00,,,0.00,Wunderground v.1.15,2013-04-27 05:47:00,
2013-04-26 22:52:00,57.6,47.9,30.13,SSW,209,7.0,7.0,70,0.00,,,0.00,Wunderground v.1.15,2013-04-27 05:52:00,
2013-04-26 22:57:00,57.5,48.2,30.13,SSW,194,8.0,8.0,71,0.00,,,0.00,Wunderground v.1.15,2013-04-27 05:57:00,
2013-04-26 23:02:00,57.4,48.1,30.13,SSW,196,4.0,7.0,71,0.00,,,0.00,Wunderground v.1.15,2013-04-27 06:02:00,
2013-04-26 23:08:00,57.3,48.0,30.13,SSW,202,3.0,9.0,71,0.00,,,0.00,Wunderground v.1.15,2013-04-27 06:08:00,
2013-04-26 23:13:00,57.2,47.5,30.13,SSW,202,5.0,8.0,70,0.00,,,0.00,Wunderground v.1.15,2013-04-27 06:13:00,
2013-04-26 23:18:00,57.1,47.8,30.13,SSW,200,6.0,9.0,71,0.00,,,0.00,Wunderground v.1.15,2013-04-27 06:18:00,
2013-04-26 23:23:00,57.1,47.8,30.13,SSW,201,5.0,8.0,71,0.00,,,0.00,Wunderground v.1.15,2013-04-27 06:23:00,
2013-04-26 23:28:00,57.0,47.7,30.13,SSW,202,6.0,11.0,71,0.00,,,0.00,Wunderground v.1.15,2013-04-27 06:28:00,
2013-04-26 23:33:00,56.9,47.6,30.13,SSW,213,7.0,9.0,71,0.00,,,0.00,Wunderground v.1.15,2013-04-27 06:33:00,
2013-04-26 23:38:00,56.8,47.5,30.13,SW,221,8.0,9.0,71,0.00,,,0.00,Wunderground v.1.15,2013-04-27 06:38:00,
2013-04-26 23:43:00,56.8,47.5,30.13,SW,220,2.0,8.0,71,0.00,,,0.00,Wunderground v.1.15,2013-04-27 06:43:00,
2013-04-26 23:48:00,56.7,47.8,30.13,SSW,211,6.0,9.0,72,0.00,,,0.00,Wunderground v.1.15,2013-04-27 06:48:00,
2013-04-26 23:53:00,56.6,47.7,30.13,SW,227,3.0,10.0,72,0.00,,,0.00,Wunderground v.1.15,2013-04-27 06:53:00,
2013-04-26 23:58:00,56.4,47.5,30.13,SW,216,2.0,10.0,72,0.00,,,0.00,Wunderground v.1.15,2013-04-27 06:58:00,